Time,TemperatureF,DewpointF,PressureIn,WindDirection,WindDirectionDegrees,WindSpeedMPH,WindSpeedGustMPH,Humidity,HourlyPrecipIn,Conditions,Clouds,dailyrainin,SolarRadiationWatts/m^2,SoftwareType,DateUTC
2013-06-30 00:12:00,65.0,65.0,-100.00,WSW,253,1.0,2.0,99,0.00,,,0.39,0.000000,,2013-06-30 04:12:00,
2013-06-30 00:22:00,65.0,65.0,-100.00,WSW,253,1.0,2.0,99,0.00,,,0.39,0.000000,,2013-06-30 04:22:00,
2013-06-30 00:33:00,65.0,65.0,-100.00,WSW,253,1.0,2.0,99,0.00,,,0.39,0.000000,,2013-06-30 04:33:00,
2013-06-30 00:43:00,65.0,65.0,-100.00,WSW,253,1.0,2.0,99,0.00,,,0.39,0.000000,,2013-06-30 04:43:00,
2013-06-30 01:12:00,64.0,64.0,-100.00,West,262,1.0,2.0,99,0.00,,,0.39,0.000000,,2013-06-30 05:12:00,
2013-06-30 01:22:00,64.0,64.0,-100.00,West,262,1.0,2.0,99,0.00,,,0.39,0.000000,,2013-06-30 05:22:00,
2013-06-30 01:34:00,64.0,64.0,-100.00,West,262,1.0,2.0,99,0.00,,,0.39,0.000000,,2013-06-30 05:34:00,
2013-06-30 01:43:00,64.0,64.0,-100.00,West,262,1.0,2.0,99,0.00,,,0.39,0.000000,,2013-06-30 05:43:00,
2013-06-30 02:12:00,65.0,65.0,-100.00,North,2,1.0,2.0,100,0.00,,,0.39,0.000000,,2013-06-30 06:12:00,
2013-06-30 02:23:00,65.0,65.0,-100.00,North,2,1.0,2.0,100,0.00,,,0.39,0.000000,,2013-06-30 06:23:00,
2013-06-30 02:34:00,65.0,65.0,-100.00,North,2,1.0,2.0,100,0.00,,,0.39,0.000000,,2013-06-30 06:34:00,
2013-06-30 02:43:00,65.0,65.0,-100.00,North,2,1.0,2.0,100,0.00,,,0.39,0.000000,,2013-06-30 06:43:00,
2013-06-30 03:12:00,65.0,65.0,-100.00,North,357,1.0,2.0,100,0.00,,,0.39,0.000000,,2013-06-30 07:12:00,
2013-06-30 03:22:00,65.0,65.0,-100.00,North,357,1.0,2.0,100,0.00,,,0.39,0.000000,,2013-06-30 07:22:00,
2013-06-30 03:33:00,65.0,65.0,-100.00,North,357,1.0,2.0,100,0.00,,,0.39,0.000000,,2013-06-30 07:33:00,
2013-06-30 03:44:00,65.0,65.0,-100.00,North,357,1.0,2.0,100,0.00,,,0.39,0.000000,,2013-06-30 07:44:00,
2013-06-30 04:12:00,64.0,64.0,-100.00,North,356,1.0,4.0,100,0.00,,,0.39,0.000000,,2013-06-30 08:12:00,
2013-06-30 04:22:00,64.0,64.0,-100.00,North,356,1.0,4.0,100,0.00,,,0.39,0.000000,,2013-06-30 08:22:00,
2013-06-30 04:33:00,64.0,64.0,-100.00,North,356,1.0,4.0,100,0.00,,,0.39,0.000000,,2013-06-30 08:33:00,
2013-06-30 04:42:00,64.0,64.0,-100.00,North,356,1.0,4.0,100,0.00,,,0.39,0.000000,,2013-06-30 08:42:00,
2013-06-30 05:12:00,64.0,64.0,-100.00,SSW,196,1.0,2.0,100,0.00,,,0.39,0.000000,,2013-06-30 09:12:00,
2013-06-30 05:23:00,64.0,64.0,-100.00,SSW,196,1.0,2.0,100,0.00,,,0.39,0.000000,,2013-06-30 09:23:00,
2013-06-30 05:34:00,64.0,64.0,-100.00,SSW,196,1.0,2.0,100,0.00,,,0.39,0.000000,,2013-06-30 09:34:00,
2013-06-30 05:43:00,64.0,64.0,-100.00,SSW,196,1.0,2.0,100,0.00,,,0.39,0.000000,,2013-06-30 09:43:00,
2013-06-30 06:11:00,65.0,65.0,-100.00,NNE,15,0.0,1.0,100,0.00,,,0.39,0.000000,,2013-06-30 10:11:00,
2013-06-30 06:22:00,65.0,65.0,-100.00,NNE,15,0.0,1.0,100,0.00,,,0.39,0.000000,,2013-06-30 10:22:00,
2013-06-30 06:33:00,65.0,65.0,-100.00,NNE,15,0.0,1.0,100,0.00,,,0.39,0.000000,,2013-06-30 10:33:00,
2013-06-30 06:42:00,65.0,65.0,-100.00,NNE,15,0.0,1.0,100,0.00,,,0.39,0.000000,,2013-06-30 10:42:00,
2013-06-30 07:11:00,65.0,65.0,-100.00,North,349,1.0,2.0,100,0.00,,,0.39,1.000000,,2013-06-30 11:11:00,
2013-06-30 07:22:00,65.0,65.0,-100.00,North,349,1.0,2.0,100,0.00,,,0.39,1.000000,,2013-06-30 11:22:00,
2013-06-30 07:33:00,65.0,65.0,-100.00,North,349,1.0,2.0,100,0.00,,,0.39,1.000000,,2013-06-30 11:33:00,
2013-06-30 07:43:00,65.0,65.0,-100.00,North,349,1.0,2.0,100,0.00,,,0.39,1.000000,,2013-06-30 11:43:00,
2013-06-30 08:11:00,65.0,65.0,-100.00,NE,48,1.0,2.0,100,0.00,,,0.39,15.000000,,2013-06-30 12:11:00,
2013-06-30 08:24:00,65.0,65.0,-100.00,NE,48,1.0,2.0,100,0.00,,,0.39,15.000000,,2013-06-30 12:24:00,
2013-06-30 08:33:00,65.0,65.0,-100.00,NE,48,1.0,2.0,100,0.00,,,0.39,15.000000,,2013-06-30 12:33:00,
2013-06-30 08:43:00,65.0,65.0,-100.00,NE,48,1.0,2.0,100,0.00,,,0.39,15.000000,,2013-06-30 12:43:00,
2013-06-30 09:12:00,66.0,66.0,-100.00,North,358,2.0,2.0,100,0.00,,,0.39,62.000000,,2013-06-30 13:12:00,
2013-06-30 09:22:00,66.0,66.0,-100.00,North,358,2.0,2.0,100,0.00,,,0.39,62.000000,,2013-06-30 13:22:00,
2013-06-30 09:34:00,66.0,66.0,-100.00,North,358,2.0,2.0,100,0.00,,,0.39,62.000000,,2013-06-30 13:34:00,
2013-06-30 09:43:00,66.0,66.0,-100.00,North,358,2.0,2.0,100,0.00,,,0.39,62.000000,,2013-06-30 13:43:00,
2013-06-30 10:11:00,67.0,67.0,-100.00,NNW,335,1.0,4.0,100,0.00,,,0.39,103.000000,,2013-06-30 14:11:00,
2013-06-30 10:22:00,67.0,67.0,-100.00,NNW,335,1.0,4.0,100,0.00,,,0.39,103.000000,,2013-06-30 14:22:00,
2013-06-30 10:33:00,67.0,67.0,-100.00,NNW,335,1.0,4.0,100,0.00,,,0.39,103.000000,,2013-06-30 14:33:00,
2013-06-30 10:44:00,67.0,67.0,-100.00,NNW,335,1.0,4.0,100,0.00,,,0.39,103.000000,,2013-06-30 14:44:00,
2013-06-30 11:12:00,68.0,65.0,-100.00,NNW,329,1.0,3.0,90,0.00,,,0.39,187.000000,,2013-06-30 15:12:00,
2013-06-30 11:23:00,68.0,65.0,-100.00,NNW,329,1.0,3.0,90,0.00,,,0.39,187.000000,,2013-06-30 15:23:00,
2013-06-30 11:34:00,68.0,65.0,-100.00,NNW,329,1.0,3.0,90,0.00,,,0.39,187.000000,,2013-06-30 15:34:00,
2013-06-30 11:44:00,68.0,65.0,-100.00,NNW,329,1.0,3.0,90,0.00,,,0.39,187.000000,,2013-06-30 15:44:00,
2013-06-30 12:11:00,72.0,68.0,-100.00,WNW,293,2.0,4.0,87,0.00,,,0.39,358.000000,,2013-06-30 16:11:00,
2013-06-30 12:21:00,72.0,68.0,-100.00,WNW,293,2.0,4.0,87,0.00,,,0.39,358.000000,,2013-06-30 16:21:00,
2013-06-30 12:34:00,72.0,68.0,-100.00,WNW,293,2.0,4.0,87,0.00,,,0.39,358.000000,,2013-06-30 16:34:00,
2013-06-30 12:44:00,72.0,68.0,-100.00,WNW,293,2.0,4.0,87,0.00,,,0.39,358.000000,,2013-06-30 16:44:00,
2013-06-30 13:11:00,76.0,66.0,-100.00,SW,225,2.0,4.0,71,0.00,,,0.39,755.000000,,2013-06-30 17:11:00,
2013-06-30 13:23:00,76.0,66.0,-100.00,SW,225,2.0,4.0,71,0.00,,,0.39,755.000000,,2013-06-30 17:23:00,
2013-06-30 13:34:00,76.0,66.0,-100.00,SW,225,2.0,4.0,71,0.00,,,0.39,755.000000,,2013-06-30 17:34:00,
2013-06-30 13:43:00,76.0,66.0,-100.00,SW,225,2.0,4.0,71,0.00,,,0.39,755.000000,,2013-06-30 17:43:00,
2013-06-30 14:12:00,80.0,67.0,-100.00,ENE,63,2.0,5.0,65,0.00,,,0.39,861.000000,,2013-06-30 18:12:00,
2013-06-30 14:22:00,80.0,67.0,-100.00,ENE,63,2.0,5.0,65,0.00,,,0.39,861.000000,,2013-06-30 18:22:00,
2013-06-30 14:34:00,80.0,67.0,-100.00,ENE,63,2.0,5.0,65,0.00,,,0.39,861.000000,,2013-06-30 18:34:00,
2013-06-30 14:43:00,80.0,67.0,-100.00,ENE,63,2.0,5.0,65,0.00,,,0.39,861.000000,,2013-06-30 18:43:00,
2013-06-30 15:11:00,71.0,61.0,-100.00,North,358,3.0,6.0,71,0.00,,,0.39,386.000000,,2013-06-30 19:11:00,
2013-06-30 15:22:00,71.0,61.0,-100.00,North,358,3.0,6.0,71,0.00,,,0.39,386.000000,,2013-06-30 19:22:00,
2013-06-30 15:33:00,71.0,61.0,-100.00,North,358,3.0,6.0,71,0.00,,,0.39,386.000000,,2013-06-30 19:33:00,
2013-06-30 15:43:00,71.0,61.0,-100.00,North,358,3.0,6.0,71,0.00,,,0.39,386.000000,,2013-06-30 19:43:00,
2013-06-30 16:12:00,66.0,65.0,-100.00,NE,49,2.0,6.0,98,0.60,,,0.99,54.000000,,2013-06-30 20:12:00,
2013-06-30 16:22:00,66.0,65.0,-100.00,NE,49,2.0,6.0,98,0.60,,,0.99,54.000000,,2013-06-30 20:22:00,
2013-06-30 16:34:00,66.0,65.0,-100.00,NE,49,2.0,6.0,98,0.60,,,0.99,54.000000,,2013-06-30 20:34:00,
2013-06-30 16:42:00,66.0,65.0,-100.00,NE,49,2.0,6.0,98,0.60,,,0.99,54.000000,,2013-06-30 20:42:00,
2013-06-30 17:11:00,67.0,67.0,-100.00,SW,220,1.0,2.0,99,0.04,,,0.87,56.000000,,2013-06-30 21:11:00,
2013-06-30 17:22:00,67.0,67.0,-100.00,SW,220,1.0,2.0,99,0.04,,,0.87,56.000000,,2013-06-30 21:22:00,
2013-06-30 17:34:00,67.0,67.0,-100.00,SW,220,1.0,2.0,99,0.04,,,0.87,56.000000,,2013-06-30 21:34:00,
2013-06-30 17:43:00,67.0,67.0,-100.00,SW,220,1.0,2.0,99,0.04,,,0.87,56.000000,,2013-06-30 21:43:00,
2013-06-30 18:11:00,69.0,69.0,-100.00,SSW,197,1.0,2.0,99,0.02,,,0.88,121.000000,,2013-06-30 22:11:00,
2013-06-30 18:22:00,69.0,69.0,-100.00,SSW,197,1.0,2.0,99,0.02,,,0.88,121.000000,,2013-06-30 22:22:00,
2013-06-30 18:34:00,69.0,69.0,-100.00,SSW,197,1.0,2.0,99,0.02,,,0.88,121.000000,,2013-06-30 22:34:00,
2013-06-30 18:43:00,69.0,69.0,-100.00,SSW,197,1.0,2.0,99,0.02,,,0.88,121.000000,,2013-06-30 22:43:00,
2013-06-30 19:11:00,70.0,69.0,-100.00,North,354,2.0,3.0,96,0.00,,,0.67,150.000000,,2013-06-30 23:11:00,
2013-06-30 19:22:00,70.0,69.0,-100.00,North,354,2.0,3.0,96,0.00,,,0.67,150.000000,,2013-06-30 23:22:00,
2013-06-30 19:33:00,70.0,69.0,-100.00,North,354,2.0,3.0,96,0.00,,,0.67,150.000000,,2013-06-30 23:33:00,
2013-06-30 19:44:00,70.0,69.0,-100.00,North,354,2.0,3.0,96,0.00,,,0.67,150.000000,,2013-06-30 23:44:00,
2013-06-30 20:11:00,68.0,67.0,-100.00,North,354,2.0,2.0,97,0.00,,,0.66,67.000000,,2013-07-01 00:11:00,
2013-06-30 20:22:00,68.0,67.0,-100.00,North,354,2.0,2.0,97,0.00,,,0.66,67.000000,,2013-07-01 00:22:00,
2013-06-30 20:33:00,68.0,67.0,-100.00,North,354,2.0,2.0,97,0.00,,,0.66,67.000000,,2013-07-01 00:33:00,
2013-06-30 20:42:00,68.0,67.0,-100.00,North,354,2.0,2.0,97,0.00,,,0.66,67.000000,,2013-07-01 00:42:00,
2013-06-30 21:11:00,67.0,66.0,-100.00,North,354,2.0,3.0,98,0.00,,,0.66,10.000000,,2013-07-01 01:11:00,
2013-06-30 21:22:00,67.0,66.0,-100.00,North,354,2.0,3.0,98,0.00,,,0.66,10.000000,,2013-07-01 01:22:00,
2013-06-30 21:33:00,67.0,66.0,-100.00,North,354,2.0,3.0,98,0.00,,,0.66,10.000000,,2013-07-01 01:33:00,
2013-06-30 21:42:00,67.0,66.0,-100.00,North,354,2.0,3.0,98,0.00,,,0.66,10.000000,,2013-07-01 01:42:00,
2013-06-30 22:12:00,66.0,66.0,-100.00,North,357,2.0,2.0,99,0.00,,,0.66,1.000000,,2013-07-01 02:12:00,
2013-06-30 22:22:00,66.0,66.0,-100.00,North,357,2.0,2.0,99,0.00,,,0.66,1.000000,,2013-07-01 02:22:00,
2013-06-30 22:33:00,66.0,66.0,-100.00,North,357,2.0,2.0,99,0.00,,,0.66,1.000000,,2013-07-01 02:33:00,
2013-06-30 22:44:00,66.0,66.0,-100.00,North,357,2.0,2.0,99,0.00,,,0.66,1.000000,,2013-07-01 02:44:00,
2013-06-30 23:11:00,66.0,65.0,-100.00,North,359,2.0,2.0,98,0.01,,,0.67,0.000000,,2013-07-01 03:11:00,
2013-06-30 23:23:00,66.0,65.0,-100.00,North,359,2.0,2.0,98,0.01,,,0.67,0.000000,,2013-07-01 03:23:00,
2013-06-30 23:33:00,66.0,65.0,-100.00,North,359,2.0,2.0,98,0.01,,,0.67,0.000000,,2013-07-01 03:33:00,
2013-06-30 23:43:00,66.0,65.0,-100.00,North,359,2.0,2.0,98,0.01,,,0.67,0.000000,,2013-07-01 03:43:00,